High Desert Yearling Classic - South Hills

Station: South Hills 15 Miles - T Race

Distance: 15 Miles

Release: 20-Apr-2017 11:45

Weather Release:    Arrival:

Wind at Release:     Wind at Arrival:

Temp at Release: °    Temp at Arrival: °

Lofts: 79

Birds: 290

Clocked: 253

Good Luck to Everyone!
Drops Pos Breeder Pigeon Name Color Sex Ent Arrival Speed To Win Eligible
1 Empire Classic - ON 3861-IF16-EMPI BB C 1 12:05:11.00 1308.010 00:00:00 Lost
2 Baldwin & Tilson - NC 6370-AU16-TENT BB H 1 12:05:19.00 1299.426 00:00:07 Lost
3 J I L - CA 0880-AU16-DADO BC C 1 12:05:30.00 1287.805 00:00:18 Lost
3 Chen Loft - PA 0077-IF16-LU BB H 1 12:05:30.00 1287.805 00:00:18 Lost
5 Marty Hansen - CA 36641-AU16-AA SLT H 1 12:05:35.00 1282.591 00:00:24 Lost
6 Thunder Birds Breeding Loft - TX 21687-AU16-ARPU Shalom - Bird of peace DC C 1 12:05:37.00 1280.517 00:00:26 Lost
7 Nanez Family Lofts - WI 6939-AU16-NANZ BB C 1 12:05:39.00 1278.450 00:00:28 Lost
8 Bert Bruno - UT 0965-IF16-NWC BC H 1 12:05:40.00 1277.419 00:00:29 Lost
9 Frank Locante - WI 16036-AU16-FRLO BBWF C 1 12:05:42.00 1275.362 00:00:31 Yes
10 Gina\'s Loft - ID 55482-AU16-ARPU 77X00 GRZ H 1 12:05:45.00 1272.289 00:00:34 Lost
10 Sam Haslem - UT 0098-AU16-SAM RC H 1 12:05:45.00 1272.289 00:00:34 Lost
12 Hammon Racing & Bk - AZ 0058-AU16-DWI BB H 1 12:05:48.00 1269.231 00:00:36 Lost
13 Evolution Racing - UT 2595-AU16-OGN DC C 1 12:05:51.00 1266.187 00:00:40 Yes
14 Donald Johnson - MA 0895-AU16-NB BB C 1 12:05:54.00 1263.158 00:00:42 Yes
15 Rangel/Flores/Fregos - UT 1761-AU16-WFA BC H 1 12:05:56.00 1261.146 00:00:45 Yes
16 Stella Loft - TX 48087-AU16-AA BB H 1 12:06:00.00 1257.143 00:00:48 Yes
17 Richard Callahan - MO 43066-AU16-AA BC H 1 12:06:01.00 1256.146 00:00:49 Lost
18 Joe Zarachowicz - MD 1327-IF16-CCC BB C 1 12:06:03.00 1254.157 00:00:51 Yes
19 Life Loft - WA 28287-AU16-JEDD Star Creator BB H 1 12:06:05.00 1252.174 00:00:53 Yes
19 Chen Loft - PA 0467-AU16-TFC BC C 2 12:06:05.00 1252.174 00:00:53 Yes
21 Dave Naylor - BC 0269-CU16-PMTN BB H 1 12:06:06.00 1251.185 00:00:54 Lost
22 Scott Mc Callister - AZ 20378-AU16-FOYS BBWF C 1 12:06:11.00 1246.263 00:00:59 Lost
22 Hi-Cal Connection - CA 0715-AU16-HICA BB H 1 12:06:11.00 1246.263 00:00:59 Lost
22 High Plains Drifter Loft - CO 6905-AU16-NCF BC C 1 12:06:11.00 1246.263 00:00:59 Yes
25 - 1513-AU16-IDA 1 12:06:12.00 1245.283 00:01:01
26 Hi-Cal Connection - CA 0739-AU16-HICA BB H 2 12:06:15.00 1242.353 00:01:04 Yes
27 Kreager Loft - PA 42231-IF16-E BB H 1 12:06:16.00 1241.379 00:01:05 Yes
28 Stevens Family Loft Syndicate - UT 0749-AU16-DWI BB H 1 12:06:19.00 1238.468 00:01:07 Yes
29 Danny Lum - HI 6861-AU16-HIC BC H 1 12:06:21.00 1236.534 00:01:10 Lost
30 Lonkey Lofts - ID 3452-AU16-WII BC C 1 12:06:24.00 1233.645 00:01:12 Lost
31 Dick & Marty Lee - ID 1599-AU16-IDA BB H 1 12:06:28.00 1229.814 00:01:16 Yes
32 Twin Loft & Joe - MD 61623-IF16-BWI Big Joey BCPD C 1 12:06:32.00 1226.006 00:01:21 Lost
33 Silver Dollar Loft - CO 0113-AU16-SD BCWF H 1 12:06:34.00 1224.111 00:01:23 Yes
34 High Plains Drifter Loft - CO 6907-AU16-NCF BB H 2 12:06:36.00 1222.222 00:01:25 Lost
35 Kwan Loft - CA 34091-AU16-JEDD BBWF H 1 12:06:38.00 1220.339 00:01:27 Lost
35 Dream Team - VT 0810-IF16-FVC BB C 1 12:06:38.00 1220.339 00:01:27 Lost
37 E M C Syndicate - LA 0665-AU16-EMC DC H 1 12:06:40.00 1218.462 00:01:28 Lost
38 Peter Truong - CA 16571-AU16-ARPU BC C 1 12:06:41.00 1217.525 00:01:30 Lost
38 Lonkey Lofts - ID 3488-AU16-WII BB H 2 12:06:41.00 1217.525 00:01:30 Lost
40 Heritage Loft - UT 87772-AU16-ARPU BB H 1 12:06:43.00 1215.656 00:01:32 Yes
41 Chen Loft - PA 0459-AU16-TFC BB C 3 12:06:47.00 1211.936 00:01:35 Lost
42 Western Loft - CA 1576-AU16-SFR BB H 1 12:06:49.00 1210.084 00:01:38 Lost
43 Bob Lehman - PA 0985-IF16-PGC BCWF H 1 12:06:50.00 1209.160 00:01:39 Yes
44 Christensen & Stevens - UT 0951-AU16-DWI BB H 1 12:06:52.00 1207.317 00:01:41 Lost
44 Adirondack Team - NY 67356-AU16-ARPU DC C 1 12:06:52.00 1207.317 00:01:41 Lost
44 Joe Zarachowicz - MD 1358-IF16-CCC DC H 2 12:06:52.00 1207.317 00:01:41 Yes
47 Mike Beam - KS 60745-AU16-TOP BLK H 1 12:06:54.00 1205.479 00:01:43 Yes
48 Mc Laughlin Lofts - MA 0554-AU16-MCLO BC H 1 12:06:58.00 1201.821 00:01:47 Lost
49 Ganus Family Loft - IN 0975-AU16-GFL BB H 1 12:06:59.00 1200.910 00:01:47 Yes
50 Stella Loft - TX 48089-AU16-AA BC C 2 12:07:00.00 1200.000 00:01:49 Lost
51 Eagle Ridge Lofts - WY 16082-AU16-EAGL DC H 1 12:07:01.00 1199.092 00:01:49 Lost
52 Baldwin & Tilson - NC 6378-AU16-TENT BB H 2 12:07:03.00 1197.279 00:01:51 Yes
53 Ganus Family Loft - IN 0615-AU16-GFL BB H 2 12:07:06.00 1194.570 00:01:55 Yes
54 Richard Callahan - MO 1400-AU16-AA BB C 2 12:07:07.00 1193.670 00:01:56 Lost
54 Scott/Carol Team - UT 0256-AU16-DWI BB H 1 12:07:07.00 1193.670 00:01:56 Yes
56 Sonny Loft - IL 1419-AU16-CHI Charlottes Web BC H 1 12:07:11.00 1190.083 00:01:59 Yes
57 Chen Loft - PA 0333-AU16-TFC BBWF C 4 12:07:12.00 1189.189 00:02:01 Lost
58 Cantere-Lum - HI 6756-AU16-HIC BB C 1 12:07:14.00 1187.406 00:02:03 Lost
59 Danny Lum - HI 6759-AU16-HIC BB H 2 12:07:19.00 1182.972 00:02:08 Yes
60 Chick Clayton - ID 0650-AU16-IDA BBWF H 1 12:07:20.00 1182.090 00:02:08 Lost
61 Cantere-Lum - HI 6753-AU16-HIC BBPN C 2 12:07:27.00 1175.947 00:02:15 Lost
62 Bert Bruno - UT 0996-IF16-NWC BC H 2 12:07:29.00 1174.203 00:02:18 Yes
63 Ganus Family Loft - IN 0983-AU16-GFL BC C 3 12:07:35.00 1169.004 00:02:23 Yes
64 Western Loft - CA 0092-AU16-GREE PDWF H 2 12:07:38.00 1166.421 00:02:27 Yes
65 J I L - CA 0881-AU16-DADO " Miracle Worker " BB H 2 12:07:41.00 1163.850 00:02:30 Yes
66 Joe Zarachowicz - MD 1336-IF16-CCC GRZ C 3 12:07:43.00 1162.142 00:02:32 Yes
67 Chick Clayton - ID 0617-AU16-IDA BB C 2 12:07:44.00 1161.290 00:02:33 Lost
68 Hi-Cal Connection - CA 0730-AU16-HICA BC H 3 12:08:02.00 1146.165 00:02:51 Lost
69 Scott/Carol Team - UT 0250-AU16-DWI BB C 2 12:08:06.00 1142.857 00:02:55 Yes
70 Richard Callahan - MO 43068-AU16-AA BB H 3 12:08:14.00 1136.298 00:03:03 Yes
71 El Dorado Lofts Canada - BC 15148-CU16-CU DCPD C 1 12:08:54.00 1104.603 00:03:42 Lost
72 Danny Lum - HI 6781-AU16-HIC BB C 3 12:08:55.00 1103.833 00:03:43 Yes
73 Silver Dollar Loft - CO 0116-AU16-SD BCWF C 2 12:08:56.00 1103.064 00:03:45 Yes
74 Jose Rangel - UT 0093-AU16-MIDW BB C 1 12:08:57.00 1102.296 00:03:46 Lost
75 Only One No1 - ME 0057-IF16-BID DC C 1 12:09:00.00 1100.000 00:03:49 Lost
76 Bert Bruno - UT 24633-AU16-FOYS BC H 3 12:09:01.00 1099.237 00:03:49 Yes
76 Baldwin & Tilson - NC 6385-AU16-TENT BB C 3 12:09:01.00 1099.237 00:03:49 Yes
78 Larry Kidd - WY 0016-AU16-4US DC C 1 12:09:03.00 1097.713 00:03:52 Yes
79 Chen Loft - PA 0091-IF16-LU BC H 5 12:09:07.00 1094.679 00:03:55 Yes
80 Only One No1 - ME 0039-IF16-BID BB C 2 12:10:38.00 1029.909 00:05:27 Yes
81 Larry Kidd - WY 0040-AU16-4US RC C 2 12:10:47.00 1023.917 00:05:36 Lost
82 Silicon Valley Syndicate - CA 1728-AU16-WSJ BB C 1 12:14:07.00 906.697 00:08:56 Yes
83 Chen Loft - PA 0099-IF16-LU BB C 6 12:14:09.00 905.660 00:08:58 Yes
84 Empire Classic - ON 3870-IF16-EMPI BB C 2 12:14:11.00 904.626 00:08:59 Yes
85 Joe Zarachowicz - MD 1354-IF16-CCC BB C 4 12:14:15.00 902.564 00:09:04 Lost
85 Peter Truong - CA 16572-AU16-ARPU BBWF C 2 12:14:15.00 902.564 00:09:04 Lost
87 D & L Lofts - BC 16113-CU16-CU BB H 1 12:14:17.00 901.537 00:09:05 Lost
88 Christensen & Stevens - UT 0768-AU16-DWI BLK C 2 12:14:19.00 900.512 00:09:07 Yes
89 Life Loft - WA 28274-AU16-JEDD McBieche BCWF C 2 12:14:20.00 900.000 00:09:09 Lost
89 Rory Smith - UT 6104-AU16-CDR BC C 1 12:14:20.00 900.000 00:09:09 Yes
91 Silvercreek Loft - ON 1704-CU16-SC BBWF C 1 12:14:21.00 899.489 00:09:09 Lost
92 Kwan Loft - CA 0670-AU16-KWAN BB C 2 12:14:22.00 898.978 00:09:11 Yes
92 Evolution Racing - UT 2959-AU16-OGN BC H 2 12:14:22.00 898.978 00:09:11 Lost
92 Jones Boys - UT 6984-AU16-SLI BC C 1 12:14:22.00 898.978 00:09:11 Yes
95 Chen Loft - PA 0458-AU16-TFC BC C 7 12:14:23.00 898.469 00:09:11 Lost
96 Racing Pigeon Mall - WA 0639-AU16-RPM BLK C 1 12:14:24.00 897.959 00:09:13 Lost
97 Silver Dollar Loft - CO 0111-AU16-SD WHT H 3 12:14:27.00 896.435 00:09:15 Yes
98 Dave Dudley - CO 16145-AU16-PUEB BB C 1 12:14:31.00 894.410 00:09:19 Lost
99 Mc Laughlin Lofts - MA 0584-AU16-MCLO BB H 2 12:14:32.00 893.905 00:09:21 Lost
100 Silver Dollar Loft - CO 0114-AU16-SD BCWF C 4 12:14:34.00 892.897 00:09:23 Yes

There are 665 bird records

Note: These Race Results are unofficial and subject to change until verified by the Race Committee and declared final.

Click for forecast!